Погода в Уиле

Погода в Уиле : погода сейчас, прогноз погоды и архив. Всё, что Вы хотите узнать о погоде в Уиле!

Хотите узнать прогноз погоды в Уиле? Тогда Вам сюда: Погода в Уиле

Поиск расширенной информации на нашем сайте:

Другие новости

Новости СМИ2

Главная страница сайта

Новости сайта

03.07.2017

Напоминаем, что на нашем специализированном сайте Метеоцентр.Азия вы можете получить высокодетализированные автоматические прогнозы погоды по пунктам России, СНГ и мира в авиационном формате (включающие направление и скорость ветра, видимость, явления погоды, количество и форму облачности, нижнюю и верхнюю границу облачности).


Погода в Уиле - сегодня

Время (UTC), дата Ветер
(°,м/с) 
Видим.   Явления Облачность Т
(°С)
Тd
(°С)
f(%) Тe
(°С)
Pmin
(гПа)
dP
(гПа)
Po
(мм)
O2
(г/м3)
Тmin Tmax R s Состояние
почвы
06 15.08.17 050 (СВ) 10 км    ясно 
+22.8 +10.4 45 +24  1017.5  0.5  755  279  +13.1         
09 15.08.17 060 (СВ) 10 км    1/1 1000 м 
[Cu med, cong]
+28.6 +4.6 22 +29  1016.8  -0.6  754  274           
12 15.08.17 080 (В) 10 км    ясно 
+29.8 +5.3 21 +30  1016.3  -0.3  754  273           
15 15.08.17 060 (СВ) 10 км    1/0 верхняя 
[Ci fib]
+29.2 +4.9 21 +29  1016.5  0.2  754  274    +30.4       
18 15.08.17 200 (Ю) н/о    ясно 
+23.3 +6.6 34 +23  1017.7  0.9  755  279    +30.4       
21 15.08.17 тихо ()   н/о    ясно 
+20 +6.2 41 +20  1018.5  0.6  755  283           
00 16.08.17 тихо ()   н/о    ясно 
+17.5 +6.3 48 +18  1019.4  0.9  756  285           
03 16.08.17 тихо ()   10 км    ясно 
+18.2 +5.9 44 +18  1020.6  1.2  757  285           
06 16.08.17 120 (ЮВ) 10 км    3/1 1000 м верхняя 
[Cu hum|Ci fib]
+27.8 +8.3 29 +28  1020.9  0.6  757  276  +15.1         
09 16.08.17 090 (В) 10 км    6/6 1000 м 
[Cu med, cong]
+31.3 +3.9 18 +31  1019.9  -0.9  757  273           
12 16.08.17 100 (В) 10 км    8/5 1000 м верхняя 
[Cu med, cong|Ci fib]
+32.3 +3.9 17 +32  1019.5  -0.3  757  272           
15 16.08.17 100 (В) 10 км    9/3 1000 м средняя, верхняя 
[Sc diur, vesp|Ac cuf|Ci fib]
+29.7 +5.5 22 +30  1019.6  757  274    +33.1       
18 16.08.17 040 (СВ) н/о    8/3 1000 м средняя, верхняя 
[Sc diur, vesp|Ac cuf|Ci fib]
+24.8 +6.4 31 +25  1020.3  0.5  757  279    +33.1       
21 16.08.17 250 (З) н/о    8/0 средняя, верхняя 
[Ac cuf|Ci fib]
+19.4 +4.1 36 +20  1020.8  0.3  757  284           
00 17.08.17 290 (З) н/о    9/0 средняя, верхняя 
[Ac cuf|Ci fib]
+18.6 +5.2 41 +20  1021.3  0.5  758  285           
03 17.08.17 320 (СЗ) 10 км    9/8 1000 м средняя, верхняя 
[Sc diur, vesp|Ac cuf|Ci fib]
+19.2 +6.9 45 +21  1021.9  0.6  758  284  +17.2        сухая 
06 17.08.17 160 (Ю) 10 км    8/0 средняя 
[Ac As]
+27.4 +8.5 30 +27  1021.7  0.1  758  276  +17.2         
09 17.08.17 тихо ()   10 км    9/6 1000 м кучево-дожд., средняя, верхняя 
[Cb cap|Ac cuf|Ci fib]
+32.2 +6.4 20 +32  1021  -0.5  758  272           
12 17.08.17 070 (В) 10 км    9/8 1000 м кучево-дожд., средняя 
[Cb cap|Ac cuf]
+32.1 +3.1 16 +32  1020.3  -0.7  757  273           
15 17.08.17 тихо ()   10 км    9/9 1000 м кучево-дожд. 
[Cb cap]
+30.4 +4.1 19 +30  1019.9  -0.5  757  274    +33.3       
18 17.08.17 320 (СЗ) н/о    9/5 1000 м средняя, верхняя 
[Sc diur, vesp|Ac cuf|Ci fib]
+25.6 +6.3 29 +26  1020.2  0.2  757  278    +33.3       
21 17.08.17 330 (СЗ) н/о    8/0 средняя, верхняя 
[Ac cuf|Ci fib]
+24.2 +6.6 32 +24  1020  -0.3  757  279           
00 18.08.17 320 (СЗ) н/о    5/0 средняя, верхняя 
[Ac cuf|Ci fib]
+20.6 +5.9 38 +21  1020  -0.1  757  283           
03 18.08.17 320 (СЗ) 10 км    9/3 1000 м средняя, верхняя 
[Sc diur, vesp|Ac cuf|Ci fib]
+18.2 +7.5 50 +20  1020.7  0.6  757  285           
06 18.08.17 080 (В) 10 км    3/1 1000 м средняя, верхняя 
[Sc diur, vesp|Ac cuf|Ci fib]
+28.7 +9.5 30 +29  1020.5  0.1  757  274  +18.2         
Время (UTC), дата Ветер
(°,м/с) 
Видим.   Явления Облачность Т
(°С)
Тd
(°С)
f(%) Тe
(°С)
Pmin
(гПа)
dP
(гПа)
Po
(мм)
O2
(г/м3)
Тmin Tmax R s Состояние
почвы

Для получения пояснительной информации подведите курсор к названию столбца.

ПОГОДА в Уиле - архив

Всё, что Вы хотите узнать о погоде в Уиле - удобно и подробно!

Выберите нужную дату (начиная с 1 января 2015* года) и нажмите кнопку "Найти".
Будут отображены архивные сводки погоды по пункту Уил, начиная с указанной даты.


Отображать данные в формате CSV (для использования в таблицах Excel)


Внимание! Наш архив погоды предназначен исключительно для личного некоммерческого использования в познавательных целях. Если Вам необходимы официальные справки о состоянии погоды (для производственных, юридических, коммерческих и т.п. целей), обращайтесь в органы Росгидромета.

*Примечание: данная дата относится к архиву по метеостанциям СССР (Россия, СНГ, Балтия).
Архив по метеостанциям Зарубежной Европы и Азии (кроме Китая) хранится 10 дней, по другим регионам земного шара (Китай, Африка, Америка, Австралия, Океания) - 1 день.

Уил - район местоположения метеостанции


Название, широта, долгота, высота метеостанции:
Уил 49.1°ш. 54.7°д. 128 м над ур. моря [Казахстан]

Дополнительная информация

В oтличие oт бoльшинства пoгoдных сайтoв мы публикуем пoдрoбную метеoинфoрмацию в детальнoм прoфессиoнальнoм фoрмате.

Характеристики температуры и влажнoсти вoздуха измеряются на высoте 2 м в тени вдали oт зданий и деревьев.
Скoрoсть ветра измеряется на высoте 10 м (на урoвне рoста челoвека скoрoсть ветра ниже в 1.5-2 раза). Если метеoстанция нахoдится в гoрoде или в лесу, тo скoрoсть ветра занижена на 2-4 м/с пo сравнению с oткрытым местoм. Скoрoсть ветра над акватoриями крупных рек и oзёр, а также на вершинах хoлмoв на 2-5 м/с выше, чем в oбычных услoвиях.
Атмoсфернoе давление в разных тoчках местнoсти мoжет значительнo oтличаться oт давления на метеoстанции, в зависимoсти oт услoвий рельефа (при пoдъёме на 10 м давление пoнижается примернo на 1 мм рт.ст.).